| time (UTC) | temp C | wind direction | speed KPH | gust KPH | rain 1hr cm | rain 24hr cm | rain mn cm | humidity % | barometer mb |
| 20260505041006 | 18 | 0 | 0.0 | 3.2 | 0.00 | 0.00 | 0.00 | 74 | 1025.4 |
| 20260505040006 | 18 | 0 | 0.0 | 4.8 | 0.00 | 0.00 | 0.00 | 75 | 1025.4 |
| 20260505035006 | 18 | 27 | 3.2 | 4.8 | 0.00 | 0.00 | 0.00 | 74 | 1025.1 |
| 20260505034006 | 18 | 37 | 1.6 | 9.7 | 0.00 | 0.00 | 0.00 | 73 | 1025.1 |
| 20260505033006 | 19 | 56 | 3.2 | 9.7 | 0.00 | 0.00 | 0.00 | 72 | 1024.9 |
| 20260505032006 | 19 | 67 | 1.6 | 4.8 | 0.00 | 0.00 | 0.00 | 70 | 1024.9 |
| 20260505031006 | 19 | 0 | 0.0 | 4.8 | 0.00 | 0.00 | 0.00 | 70 | 1024.9 |
| 20260505025006 | 18 | 39 | 3.2 | 9.7 | 0.00 | 0.00 | 0.00 | 72 | 1024.7 |
| 20260505024006 | 18 | 0 | 0.0 | 11.3 | 0.00 | 0.00 | 0.00 | 73 | 1025.0 |
| 20260505022006 | 18 | 28 | 4.8 | 9.7 | 0.00 | 0.00 | 0.00 | 74 | 1024.8 |
| 20260505021005 | 18 | 185 | 1.6 | 9.7 | 0.00 | 0.00 | 0.00 | 75 | 1025.2 |
| 20260505015006 | 18 | 131 | 1.6 | 4.8 | 0.00 | 0.00 | 0.00 | 72 | 1025.6 |
| 20260505014008 | 19 | 0 | 0.0 | 4.8 | 0.00 | 0.00 | 0.00 | 72 | 1025.8 |
| 20260505013006 | 19 | 0 | 0.0 | 4.8 | 0.00 | 0.00 | 0.00 | 73 | 1026.0 |
| 20260505012006 | 18 | 113 | 1.6 | 9.7 | 0.00 | 0.00 | 0.00 | 73 | 1026.0 |
| 20260505011006 | 18 | 182 | 3.2 | 11.3 | 0.00 | 0.00 | 0.00 | 74 | 1026.5 |
| 20260505005006 | 17 | 156 | 1.6 | 9.7 | 0.00 | 0.00 | 0.00 | 76 | 1026.9 |
| 20260505004006 | 16 | 141 | 3.2 | 11.3 | 0.00 | 0.00 | 0.00 | 78 | 1027.2 |
| 20260505003007 | 17 | 0 | 0.0 | 11.3 | 0.00 | 0.00 | 0.00 | 77 | 1027.1 |
| 20260505002006 | 18 | 66 | 4.8 | 11.3 | 0.00 | 0.00 | 0.00 | 74 | 1027.1 |
| 20260505000006 | 18 | 31 | 3.2 | 11.3 | 0.00 | 0.00 | 0.00 | 68 | 1027.7 |
| 20260504235006 | 17 | 0 | 0.0 | 4.8 | 0.00 | 0.00 | 0.00 | 70 | 1027.9 |
| 20260504234006 | 17 | 3 | 1.6 | 11.3 | 0.00 | 0.00 | 0.00 | 71 | 1028.2 |
| 20260504233010 | 17 | 0 | 0.0 | 9.7 | 0.00 | 0.00 | 0.00 | 71 | 1028.4 |
| 20260504232005 | 16 | 27 | 3.2 | 9.7 | 0.00 | 0.00 | 0.00 | 75 | 1028.9 |
| 20260504231005 | 16 | 26 | 1.6 | 9.7 | 0.00 | 0.00 | 0.00 | 76 | 1029.3 |
| 20260504230006 | 15 | 25 | 1.6 | 9.7 | 0.00 | 0.00 | 0.00 | 79 | 1029.5 |
| 20260504225005 | 14 | 30 | 3.2 | 11.3 | 0.00 | 0.00 | 0.00 | 81 | 1029.8 |
| 20260504223006 | 13 | 27 | 1.6 | 9.7 | 0.00 | 0.00 | 0.00 | 83 | 1030.2 |
| 20260504221006 | 11 | 35 | 4.8 | 11.3 | 0.00 | 0.00 | 0.00 | 88 | 1030.8 |
| 20260504220006 | 11 | 32 | 3.2 | 14.5 | 0.00 | 0.00 | 0.00 | 92 | 1031.4 |
| 20260504215006 | 10 | 18 | 3.2 | 14.5 | 0.00 | 0.00 | 0.00 | 94 | 1031.8 |
| 20260504214006 | 9 | 28 | 6.4 | 14.5 | 0.00 | 0.00 | 0.00 | 96 | 1032.2 |
| 20260504213007 | 8 | 23 | 4.8 | 11.3 | 0.00 | 0.00 | 0.00 | 99 | 1033.3 |
| 20260504211005 | 7 | 25 | 1.6 | 9.7 | 0.00 | 0.00 | 0.00 | 99 | 1034.1 |
| 20260504210007 | 7 | 31 | 3.2 | 11.3 | 0.00 | 0.00 | 0.00 | 99 | 1034.6 |
| 20260504205005 | 7 | 19 | 3.2 | 11.3 | 0.00 | 0.00 | 0.00 | 99 | 1035.3 |
| 20260504204006 | 6 | 32 | 4.8 | 14.5 | 0.00 | 0.00 | 0.00 | 99 | 1035.8 |
| 20260504203007 | 6 | 29 | 4.8 | 11.3 | 0.00 | 0.00 | 0.00 | 99 | 1036.2 |
| 20260504202006 | 5 | 30 | 4.8 | 11.3 | 0.00 | 0.00 | 0.00 | 99 | 1036.3 |
| 20260504201006 | 5 | 44 | 4.8 | 9.7 | 0.00 | 0.00 | 0.00 | 99 | 1036.4 |
| 20260504200006 | 5 | 38 | 1.6 | 9.7 | 0.00 | 0.00 | 0.00 | 99 | 1036.0 |
| 20260504194006 | 4 | 43 | 3.2 | 9.7 | 0.00 | 0.00 | 0.00 | 99 | 1035.8 |
| 20260504192005 | 3 | 33 | 1.6 | 9.7 | 0.00 | 0.00 | 0.00 | 99 | 1035.7 |
| 20260504191006 | 3 | 0 | 0.0 | 4.8 | 0.00 | 0.00 | 0.00 | 99 | 1035.2 |
| 20260504190006 | 3 | 40 | 3.2 | 4.8 | 0.00 | 0.00 | 0.00 | 99 | 1035.3 |
| 20260504185007 | 3 | 36 | 1.6 | 9.7 | 0.00 | 0.00 | 0.00 | 99 | 1035.1 |
| 20260504184007 | 3 | 24 | 1.6 | 9.7 | 0.00 | 0.00 | 0.00 | 99 | 1035.0 |
| 20260504183006 | 4 | 28 | 1.6 | 9.7 | 0.00 | 0.00 | 0.00 | 99 | 1035.1 |
| 20260504182006 | 4 | 25 | 1.6 | 4.8 | 0.00 | 0.00 | 0.00 | 99 | 1035.6 |
| 20260504181005 | 4 | 31 | 1.6 | 9.7 | 0.00 | 0.00 | 0.00 | 99 | 1035.6 |
| 20260504180007 | 4 | 28 | 1.6 | 9.7 | 0.00 | 0.00 | 0.00 | 99 | 1036.3 |
| 20260504175005 | 4 | 43 | 3.2 | 4.8 | 0.00 | 0.00 | 0.00 | 99 | 1036.8 |
| 20260504174006 | 4 | 30 | 1.6 | 9.7 | 0.00 | 0.00 | 0.00 | 99 | 1036.7 |
| 20260504173007 | 4 | 38 | 3.2 | 4.8 | 0.00 | 0.00 | 0.00 | 99 | 1037.0 |
| 20260504172006 | 4 | 0 | 0.0 | 9.7 | 0.00 | 0.00 | 0.00 | 99 | 1036.7 |
| 20260504171005 | 4 | 21 | 1.6 | 9.7 | 0.00 | 0.00 | 0.00 | 99 | 1036.6 |
| 20260504141006 | 6 | 34 | 1.6 | 9.7 | 0.00 | 0.00 | 0.00 | 99 | 1033.2 |
| 20260504082006 | 8 | 0 | 0.0 | 0.0 | 0.00 | 0.00 | 0.00 | 98 | 1030.4 |
| 20260504081006 | 8 | 0 | 0.0 | 0.0 | 0.00 | 0.00 | 0.00 | 98 | 1030.5 |
| 20260504050006 | 13 | 0 | 0.0 | 3.2 | 0.00 | 0.00 | 0.00 | 90 | 1028.7 |